Location: Milton Keynes
(52.0316°N, 0.7531°W)
Time: 00:31:43
(UTC+00:00)

BlueWalker 3 - Pass Details

Date: 18 December 2025
Orbit: 451 x 463 km, 53.2° (Epoch: 15 January)

Event Time Altitude Azimuth Distance (km) Brightness Sun altitude
Rises 07:23:12 0° 199° (SSW) 2,454 5.6 -6.4°
Reaches altitude 10° 07:25:53 10° 178° (S) 1,589 5.0 -6.1°
Maximum altitude 07:28:12 17° 137° (SE) 1,249 5.3 -5.8°
Drops below altitude 10° 07:30:32 10° 97° (E) 1,600 5.7 -5.4°
Sets 07:33:15 0° 76° (ENE) 2,481 6.2 -5.1°
